Location: Unspecified
(43.4354°N, 0.0000°E)
Time: 14:46:39
(UTC+00:00)

DX 1 - Visible Passes

Search period start: 16 July 2019 00:00
Search period end: 26 July 2019 00:00
Orbit: 619 x 632 km, 98.4° (Epoch: 16 July)

Date Brightness Start Highest point End Pass type
(mag) Time Alt. Az. Time Alt. Az. Time Alt. Az.
16 Jul ? 02:53:53 10° SE 02:58:04 49° ENE 03:02:16 10° N visible
17 Jul ? 03:12:32 10° SSE 03:16:53 78° ENE 03:21:15 10° N visible
18 Jul ? 01:58:00 10° E 02:00:08 13° ENE 02:02:15 10° NNE visible
18 Jul ? 03:31:25 10° S 03:35:44 67° WSW 03:40:05 10° NNW visible
19 Jul ? 02:15:37 10° ESE 02:18:47 20° ENE 02:21:56 10° NNE visible
19 Jul ? 03:50:32 10° S 03:54:39 41° W 03:58:47 10° NNW visible
20 Jul ? 02:33:43 10° SE 02:37:29 29° ENE 02:41:15 10° N visible
21 Jul ? 02:52:06 10° SE 02:56:14 45° ENE 03:00:24 10° N visible
22 Jul ? 03:10:43 10° SSE 03:15:02 72° ENE 03:19:23 10° N visible
23 Jul ? 01:56:28 10° E 01:58:19 13° ENE 02:00:10 10° NE visible
23 Jul ? 03:29:33 10° S 03:33:54 72° WSW 03:38:14 10° NNW visible
24 Jul ? 02:13:57 10° ESE 02:16:58 19° ENE 02:19:58 10° NNE visible
24 Jul ? 03:48:38 10° S 03:52:47 45° W 03:56:58 10° NNW visible
25 Jul ? 02:31:59 10° SE 02:35:39 27° ENE 02:39:20 10° N visible
